Probability
0 0 0 0 0 0 0 0 0 0 0 0 0 0 0 0 0 0 0 0 0 0 0 0 0 0 0 0 0 0 0 0 0 0 0 0 0 0 0 0 0 0 0 0
0 0 0 0 0 0 0 0 0 0 0 0 0 0 0 0 0 0 0 0 0 0 0 0 0 0 0 0 0 0 0 0 0 0 0 0 0 0 0 0 0 0 0 0
0 0 0 0 0 0 0 0 0 0 0 0 0 0 0 0 0 0 0 0 0 0 0 0 0 0 0 0 0 0 0 0 0 0 0 0 0 0 0 0 0 0 0 0
0 0 0 0 0 0 0 0 0 0 0 0 0 0 0 0 0 0 0 0 0 0 0 0 0 0 0 0 0 0 0 0 0 0 0 0 0 0 0 0 0 0 0 0
0 0 0 0 0 0 0 0 0 0 0 0 0 0 0 0 0 0 0 0 0 0 0 0 0 0 0 0 0 0 0 0 0 0 0 0 0 0 0 0 0 0 0 0
0 0 0 0 0 0 0 0 0 0 0 0 0 0 0 0 0 0 0 0 0 0 0 0 0 0 0 0 0 0 0 0 0 0 0 0 0 0 0 0 0 0 0 0
0 0 0 0 0 0 0 0 0 0 0 0 0 0 0 0 0 0 0 0 0 0 0 0 0 0 0 0 0 0 0 0 0 0 0 0 0 0 0 0 0 0 0 0
0 0 0 0 0 0 0 0 0 0 0 0 0 0 0 0 0 0 0 0 0 0 0 0 0 0 0 0 0 0 0 0 0 0 0 0 0 0 0 0 0 0 0 0
0 0 0 0 0 0 0 0 0 0 0 0 0 0 0 0 0 0 0 0 0 0 0 0 0 0 0 0 0 0 0 0 0 0 0 0 0 0 0 0 0 0 0 0
0 0 0 0 0 0 0 0 0 0 0 0 0 0 0 0 0 0 0 0 0 0 0 0 0 0 0 0 0 0 0 0 0 0 0 0 0 0 0 0 0 0 0 0
0 0 0 0 0 0 0 0 0 0 0 0 0 0 0 0 0 0 0 0 0 0 0 0 0 0 0 0 0 0 0 0 0 0 0 0 0 0 0 0 0 0 0 0
0 0 0 0 0 0 0 0 0 0 0 0 0 0 0 0 0 0 0 0 0 0 0 0 0 0 0 0 0 0 0 0 0 0 0 0 0 0 0 0 0 0 0 0
0 0 0 0 0 0 0 0 0 0 0 0 0 0 0 0 0 0 0 0 0 0 0 0 0 0 0 0 0 0 0 0 0 0 0 0 0 0 0 0 0 0 0 0
0 0 0 0 0 0 0 0 0 0 0 0 0 0 0 0 0 0 0 0 0 0 0 0 0 0 0 0 0 0 0 0 0 0 0 0 0 0 0 0 0 0 0 0
0 0 0 0 0 0 0 0 0 0 0 0 0 0 0 0 0 0 0 0 0 0 0 0 0 0 0 0 0 0 0 0 0 0 0 0 0 0 0 0 0 0 0 0
0 0 0 0 0 0 0 0 0 0 0 0 0 0 0 0 0 0 0 0 0 0 0 0 0 0 0 0 0 0 0 0 0 0 0 0 0 0 0 0 0 0 0 0
0 0 0 0 0 0 0 0 0 0 0 0 0 0 0 0 0 0 0 0 0 0 0 0 0 0 0 0 0 0 0 0 0 0 0 0 0 0 0 0 0 0 0 0
0 0 0 0 0 0 0 0 0 0 0 0 0 0 0 0 0 0 0 0 0 0 0 0 0 0 0 0 0 0 0 0 0 0 0 0 0 0 0 0 0 0 0 0
0 0 0 0 0 0 0 0 0 0 0 0 0 0 0 0 0 0 0 0 0 0 0 0 0 0 0 0 0 0 0 0 0 0 0 0 0 0 0 0 0 0 0 0
0 0 0 0 0 0 0 0 0 0 0 0 0 0 0 0 0 0 0 0 0 0 0 0 0 0 0 0 0 0 0 0 0 0 0 0 0 0 0 0 0 0 0 0
0 0 0 0 0 0 0 0 0 0 0 0 0 0 0 0 0 0 0 0 0 0 0 0 0 0 0 0 0 0 0 0 0 0 0 0 0 0 0 0 0 0 0 0
0 0 0 0 0 0 0 0 0 0 0 0 0 0 0 0 0 0 0 0 0 0 0 0 0 0 0 0 0 0 0 0 0 0 0 0 0 0 0 0 0 0 0 0
0 0 0 0 0 0 0 0 0 0 0 0 0 0 0 0 0 0 0 0 0 0 0 0 0 0 0 0 0 0 0 0 0 0 0 0 0 0 0 0 0 0 0 0
0 0 0 0 0 0 0 0 0 0 0 0 0 0 0 0 0 0 0 0 0 0 0 0 0 0 0 0 0 0 0 0 0 0 0 0 0 0 0 0 0 0 0 0
0 0 0 0 0 0 0 0 0 0 0 0 0 0 0 0 0 0 0 0 0 0 0 0 0 0 0 0 0 0 0 0 0 0 0 0 0 0 0 0 0 0 0 0
0 0 0 0 0 0 0 0 0 0 0 0 0 0 0 0 0 0 0 0 0 0 0 0 0 0 0 0 0 0 0 0 0 0 0 0 0 0 0 0 0 0 0 0
0 0 0 0 0 0 0 0 0 0 0 0 0 0 0 0 0 0 0 0 0 0 0 0 0 0 0 0 0 0 0 0 0 0 0 0 0 0 0 0 0 0 0 0
Height
5637 5639 5641 5642 5644 5646 5647 5649 5651 5654 5656 5658 5659 5661 5663 5665 5667 5669 5671 5672 5674 5675 5677 5678 5680 5681 5682 5684 5685 5686 5687 5688 5689 5689 5689 5690 5690 5690 5690 5690 5690 5690 5690 5690
5634 5635 5636 5637 5639 5640 5642 5643 5645 5647 5650 5651 5652 5653 5655 5657 5659 5661 5663 5664 5666 5667 5668 5670 5671 5672 5673 5674 5675 5676 5677 5678 5678 5679 5679 5679 5679 5679 5680 5679 5679 5679 5679 5679
5629 5630 5630 5633 5635 5635 5636 5637 5639 5640 5643 5643 5645 5646 5648 5650 5651 5653 5655 5656 5657 5658 5660 5661 5662 5663 5664 5665 5666 5667 5667 5668 5668 5668 5669 5669 5669 5669 5669 5669 5669 5668 5668 5668
5624 5625 5626 5629 5628 5629 5629 5631 5632 5633 5634 5636 5637 5639 5640 5642 5643 5645 5646 5647 5649 5650 5651 5652 5653 5654 5655 5656 5656 5657 5657 5658 5658 5658 5659 5659 5659 5659 5659 5658 5658 5658 5657 5657
5618 5618 5620 5622 5622 5622 5623 5624 5625 5626 5627 5628 5629 5631 5632 5634 5635 5636 5638 5639 5640 5641 5642 5643 5644 5645 5645 5646 5647 5647 5647 5648 5648 5648 5648 5649 5649 5648 5648 5648 5648 5647 5647 5646
5613 5613 5613 5616 5616 5615 5617 5617 5619 5619 5620 5621 5622 5623 5625 5626 5627 5628 5629 5630 5631 5632 5633 5634 5635 5635 5636 5636 5637 5637 5638 5638 5638 5638 5639 5639 5639 5639 5638 5638 5637 5637 5636 5636
5607 5606 5607 5609 5608 5609 5611 5612 5611 5611 5612 5613 5614 5615 5617 5617 5618 5619 5620 5621 5622 5623 5623 5624 5625 5625 5626 5627 5627 5627 5628 5628 5628 5629 5629 5629 5629 5629 5628 5628 5628 5627 5627 5626
5602 5601 5604 5602 5601 5603 5603 5603 5603 5604 5604 5605 5606 5606 5607 5608 5609 5610 5611 5612 5613 5613 5614 5615 5615 5616 5617 5617 5617 5618 5618 5619 5619 5619 5619 5619 5619 5619 5619 5619 5618 5618 5618 5617
5598 5598 5596 5595 5595 5595 5595 5595 5596 5596 5597 5597 5598 5598 5599 5600 5601 5601 5602 5603 5604 5604 5605 5606 5606 5607 5607 5608 5608 5609 5609 5609 5609 5609 5609 5610 5610 5610 5609 5609 5609 5609 5609 5609
5592 5591 5590 5589 5588 5588 5588 5588 5588 5588 5589 5589 5589 5590 5590 5591 5592 5593 5594 5594 5595 5596 5596 5597 5597 5598 5598 5599 5599 5600 5600 5600 5600 5600 5601 5601 5600 5600 5600 5600 5600 5600 5600 5600
5588 5586 5584 5583 5582 5582 5581 5581 5581 5581 5581 5581 5581 5581 5582 5583 5583 5584 5585 5585 5586 5587 5588 5588 5589 5589 5589 5590 5590 5591 5591 5591 5591 5592 5592 5592 5592 5592 5592 5592 5592 5592 5592 5592
5584 5581 5579 5577 5576 5575 5574 5574 5573 5573 5573 5572 5572 5573 5573 5574 5575 5575 5576 5577 5577 5578 5579 5579 5580 5580 5580 5581 5581 5582 5582 5582 5583 5583 5583 5583 5583 5583 5583 5583 5583 5583 5583 5583
5579 5575 5573 5571 5570 5568 5567 5566 5565 5564 5564 5564 5564 5564 5565 5565 5566 5566 5567 5568 5568 5569 5570 5570 5571 5571 5572 5572 5572 5573 5573 5573 5574 5574 5574 5574 5574 5574 5574 5575 5574 5574 5574 5574
5573 5570 5568 5566 5564 5562 5560 5558 5557 5556 5556 5555 5555 5556 5556 5557 5557 5557 5558 5559 5559 5560 5560 5561 5562 5562 5563 5563 5563 5564 5564 5564 5565 5565 5565 5565 5565 5565 5565 5565 5565 5565 5565 5565
5568 5565 5562 5559 5557 5555 5552 5551 5549 5548 5547 5546 5547 5547 5547 5547 5548 5548 5549 5549 5550 5550 5551 5552 5552 5553 5553 5554 5554 5554 5555 5555 5555 5555 5555 5556 5556 5556 5556 5556 5556 5556 5555 5555
5563 5559 5556 5553 5550 5547 5545 5543 5541 5539 5538 5537 5537 5537 5537 5538 5538 5539 5539 5539 5540 5541 5541 5542 5542 5543 5543 5544 5544 5544 5545 5545 5545 5545 5545 5545 5546 5545 5545 5545 5546 5545 5545 5545
5558 5554 5550 5547 5544 5541 5538 5535 5533 5531 5530 5529 5528 5528 5528 5528 5528 5529 5529 5529 5530 5531 5531 5532 5532 5533 5533 5534 5534 5534 5535 5535 5535 5535 5535 5535 5535 5535 5535 5535 5535 5535 5535 5534
5551 5548 5544 5541 5537 5534 5531 5528 5525 5523 5521 5520 5518 5518 5517 5517 5518 5518 5519 5519 5520 5520 5521 5521 5522 5522 5523 5523 5524 5524 5524 5525 5525 5525 5525 5525 5524 5524 5524 5524 5524 5524 5524 5523
5545 5541 5537 5534 5530 5527 5524 5521 5518 5515 5513 5510 5509 5507 5506 5506 5507 5508 5509 5509 5509 5510 5510 5511 5512 5512 5513 5513 5513 5514 5514 5514 5514 5514 5514 5514 5514 5513 5513 5513 5512 5512 5512 5512
5538 5534 5530 5526 5523 5520 5516 5513 5510 5508 5505 5502 5499 5497 5496 5496 5496 5498 5499 5499 5499 5499 5500 5500 5501 5502 5502 5503 5503 5503 5503 5504 5504 5503 5503 5503 5503 5502 5502 5501 5501 5501 5500 5500
5530 5526 5522 5518 5515 5511 5508 5505 5502 5499 5497 5494 5491 5489 5488 5487 5488 5489 5490 5490 5490 5490 5491 5491 5491 5492 5493 5493 5493 5493 5493 5493 5493 5493 5493 5492 5492 5491 5491 5490 5490 5489 5489 5489
5522 5518 5514 5510 5506 5503 5499 5496 5493 5490 5488 5486 5484 5482 5481 5480 5480 5481 5481 5481 5481 5481 5481 5482 5482 5482 5483 5483 5484 5483 5483 5483 5483 5483 5482 5482 5481 5481 5480 5480 5479 5479 5478 5477
5513 5508 5504 5500 5496 5493 5489 5486 5483 5481 5479 5477 5475 5474 5473 5473 5473 5473 5473 5472 5472 5472 5472 5473 5473 5473 5473 5474 5474 5474 5474 5473 5473 5473 5472 5472 5471 5470 5470 5469 5468 5468 5467 5467
5503 5498 5494 5490 5486 5482 5479 5475 5473 5470 5469 5467 5465 5464 5464 5463 5463 5463 5463 5463 5463 5463 5463 5463 5464 5464 5464 5464 5464 5464 5464 5464 5463 5463 5462 5462 5461 5460 5459 5459 5458 5457 5457 5456
5492 5487 5483 5479 5474 5471 5467 5464 5462 5460 5458 5456 5455 5453 5453 5453 5453 5452 5452 5452 5453 5453 5453 5454 5454 5454 5454 5455 5454 5454 5454 5454 5453 5453 5452 5452 5451 5450 5449 5449 5448 5447 5446 5445
5480 5476 5471 5467 5463 5459 5455 5453 5451 5449 5447 5445 5444 5442 5442 5441 5441 5441 5441 5442 5442 5443 5443 5443 5444 5444 5444 5445 5444 5444 5444 5444 5443 5443 5442 5441 5441 5440 5439 5438 5438 5437 5436 5435
5468 5463 5459 5455 5450 5446 5443 5441 5439 5437 5435 5434 5432 5431 5430 5430 5430 5430 5431 5431 5431 5432 5432 5433 5433 5434 5434 5434 5434 5434 5433 5433 5433 5432 5432 5431 5431 5430 5429 5429 5428 5426 5425 5424
Wind_Speed
18 19 19 20 21 22 24 25 26 25 26 26 28 28 28 28 28 28 28 28 28 29 30 30 31 32 34 35 37 38 39 40 41 42 43 44 44 45 45 45 45 45 45 45
18 19 21 21 21 22 24 25 25 26 26 26 28 28 28 28 28 28 29 29 29 30 30 30 30 31 33 34 35 36 37 38 39 40 41 41 42 42 43 43 43 43 43 43
19 20 22 22 21 23 24 25 26 26 25 26 27 28 28 28 28 28 29 29 30 30 30 31 31 32 32 33 34 35 36 37 38 38 39 39 40 40 40 41 41 41 42 42
19 20 21 21 22 23 24 24 25 26 26 26 27 28 28 28 28 28 29 30 30 31 31 32 31 32 33 33 34 35 36 36 37 37 38 38 38 39 39 39 40 40 40 40
20 21 22 21 21 23 24 24 25 26 27 28 28 29 29 29 29 29 30 30 30 31 32 32 32 32 33 33 34 34 35 36 36 37 37 37 37 37 37 38 38 38 38 38
21 22 23 23 22 23 25 26 25 26 26 27 28 29 29 29 30 30 30 30 31 31 31 32 33 33 33 33 34 34 35 35 35 36 36 36 36 36 36 36 36 36 35 35
20 22 23 23 23 25 26 26 25 26 27 27 28 29 29 29 30 30 31 31 31 31 31 32 32 33 33 33 33 34 34 35 35 35 35 36 36 35 35 34 34 34 33 32
20 22 22 24 24 24 25 25 25 26 27 27 28 28 29 29 29 30 30 30 30 30 31 31 31 31 32 32 32 33 33 33 34 34 34 34 34 34 33 33 32 32 31 30
19 20 21 23 24 25 25 25 25 26 27 27 28 28 29 29 29 29 30 30 30 30 30 30 30 30 30 31 31 31 32 32 32 32 32 32 32 32 32 31 30 30 29 29
19 20 21 23 24 25 26 27 27 27 27 28 28 28 28 29 29 29 29 29 29 29 29 29 30 30 30 30 30 31 31 31 31 30 30 30 29 29 29 29 28 28 28 28
20 20 21 22 23 24 25 26 27 28 28 28 28 28 28 28 29 29 29 29 29 29 29 29 29 29 29 29 30 30 30 30 29 29 29 29 29 29 29 28 28 28 28 28
21 21 22 22 23 23 24 25 26 27 28 29 29 29 29 29 29 29 29 29 29 29 29 29 29 29 29 29 29 29 29 29 29 29 29 29 29 29 29 29 29 28 28 28
21 21 21 21 22 23 25 25 26 27 27 28 28 28 29 29 29 29 29 30 29 29 30 30 29 29 29 29 29 29 29 29 29 29 29 29 29 29 29 30 30 30 29 29
23 22 21 21 22 24 25 26 26 26 27 28 28 29 29 29 29 30 30 30 30 30 30 30 30 30 30 30 30 30 30 30 30 30 30 30 30 30 30 30 30 30 31 31
24 24 23 23 24 25 25 25 26 27 28 29 29 30 30 30 30 30 31 31 30 31 31 31 31 31 31 31 31 31 31 31 31 32 32 32 32 32 31 31 31 32 32 32
25 24 24 24 25 25 25 25 26 26 27 28 29 30 30 31 31 31 31 31 31 31 31 32 32 32 32 32 32 32 31 31 32 32 32 32 33 33 33 33 33 33 33 33
27 26 25 25 25 26 26 26 26 26 27 28 29 30 31 31 31 31 31 32 32 32 32 32 32 32 32 32 32 32 32 32 32 32 32 33 33 33 33 34 34 34 34 34
29 28 27 26 26 26 25 25 26 26 27 27 28 29 30 31 31 31 31 31 32 32 32 31 31 31 31 31 31 32 32 33 33 33 33 33 33 34 34 34 34 34 35 36
30 29 29 29 28 27 27 26 26 27 27 28 28 28 29 29 30 29 29 30 30 31 31 31 31 31 31 31 31 31 31 32 33 33 33 33 33 33 34 34 35 35 35 35
31 31 31 30 30 29 29 28 28 28 28 28 28 28 28 28 28 28 28 29 29 29 29 29 30 30 30 30 30 31 31 31 32 32 32 33 33 33 33 33 34 34 35 35
33 33 33 32 32 31 31 30 30 29 28 27 26 26 25 25 25 26 26 27 27 28 28 28 29 29 29 29 29 29 30 30 30 31 31 31 32 32 32 32 33 33 34 35
35 35 35 35 34 33 33 32 31 30 29 28 27 25 25 24 25 26 26 27 27 27 27 27 28 28 28 28 28 28 29 29 30 30 30 31 31 32 32 32 32 33 33 33
37 38 38 38 37 36 35 34 33 32 31 29 28 27 27 27 27 27 27 27 27 27 27 27 27 27 27 27 27 27 28 28 28 28 29 29 30 30 31 31 32 32 32 32
40 40 40 40 39 38 37 36 34 33 32 31 31 30 29 29 29 29 29 28 28 28 28 28 27 27 27 27 27 27 27 27 27 27 28 28 29 29 29 29 30 31 31 31
41 41 41 41 40 38 37 35 34 34 33 32 32 31 31 31 30 30 30 30 29 29 29 29 28 28 28 28 28 28 28 28 28 28 28 28 28 28 29 29 29 30 31 31
43 43 42 42 40 39 37 36 35 35 34 33 32 32 31 31 30 29 29 29 29 29 29 29 29 29 29 29 29 29 29 29 29 29 29 29 28 28 29 29 30 30 31 31
45 44 43 42 40 39 37 37 36 35 34 33 32 32 31 31 30 30 30 30 30 30 30 30 30 30 30 30 30 30 30 31 31 30 30 30 30 30 30 30 30 31 30 31
Wind_Direction
242 245 246 245 243 242 243 245 247 246 246 248 250 250 251 252 253 253 254 255 255 256 256 257 257 257 257 257 258 259 260 262 263 264 265 266 268 269 271 272 273 274 275 275
247 249 249 249 249 250 250 250 250 250 249 250 251 252 253 254 254 255 256 257 257 257 257 258 259 259 259 259 260 261 262 263 263 264 266 267 269 270 272 273 274 275 275 275
254 254 255 255 254 254 254 253 253 252 251 251 253 254 256 256 256 256 256 258 258 257 258 260 261 261 262 262 263 264 265 266 266 267 267 268 269 271 272 273 274 274 275 275
260 259 261 261 257 255 255 254 254 253 252 253 254 255 257 257 257 257 257 258 258 259 260 261 262 263 263 263 264 264 265 266 266 267 267 269 270 272 273 273 274 275 275 275
264 265 265 263 260 257 256 256 256 255 255 256 257 256 257 257 258 259 259 260 260 260 260 261 262 263 264 264 264 264 265 265 266 267 268 269 271 272 273 274 275 276 275 275
270 269 269 266 263 260 259 258 257 258 258 259 258 258 258 258 259 260 261 261 262 261 261 262 262 263 264 264 263 264 265 265 266 267 269 270 271 273 274 274 275 275 275 275
274 274 271 270 268 265 262 263 260 259 260 259 259 259 259 259 260 261 262 262 262 262 263 263 263 264 264 263 263 264 265 265 266 268 269 270 271 272 273 274 274 274 274 274
281 278 275 272 270 268 266 264 261 260 260 260 260 259 259 259 260 261 262 262 262 263 263 263 263 263 263 263 263 264 265 266 267 268 268 269 270 271 272 273 273 273 272 272
288 282 279 276 271 267 265 264 263 263 263 262 262 261 260 260 259 261 262 262 262 262 262 263 263 263 263 263 263 264 265 266 268 268 268 269 269 270 271 271 272 272 272 272
295 288 281 277 274 269 265 264 265 264 264 263 263 262 261 259 258 260 261 261 261 261 262 263 263 264 263 263 263 264 266 267 268 267 268 269 269 269 269 270 271 271 271 272
302 296 287 281 278 274 270 267 265 264 263 262 263 262 261 260 259 259 260 260 261 261 261 262 263 263 262 263 264 265 265 266 267 267 267 267 268 269 270 270 270 271 271 271
310 302 293 284 279 277 275 272 270 267 266 266 264 263 262 260 260 260 260 260 259 260 260 261 262 262 262 262 263 264 265 265 266 266 266 267 268 270 271 271 270 271 271 271
316 309 300 291 286 284 280 277 274 271 268 267 265 263 262 260 260 260 260 259 259 259 260 260 261 262 262 263 263 264 264 264 265 266 267 268 268 269 271 271 271 270 270 271
319 312 305 298 293 289 285 280 276 273 271 268 265 264 263 262 261 261 260 260 260 260 260 260 260 261 261 263 264 264 264 264 264 265 267 268 269 270 270 270 271 271 271 271
322 316 309 302 297 294 290 283 279 275 273 270 267 266 264 263 262 262 261 261 261 261 260 261 261 262 262 263 264 264 265 265 266 267 267 268 269 269 270 269 270 271 272 271
325 321 314 309 303 297 293 289 285 280 277 274 272 269 267 265 264 262 262 261 261 261 261 262 262 263 263 263 264 265 265 266 267 268 269 269 269 269 269 269 269 270 271 271
324 321 317 312 308 303 298 293 288 284 281 279 276 273 269 267 265 264 263 263 263 262 262 263 263 263 263 264 264 264 265 266 267 269 270 270 270 270 270 270 270 269 270 270
322 318 314 312 309 305 302 297 292 288 285 283 280 276 272 268 266 265 264 264 264 263 262 263 263 263 263 264 264 265 266 267 268 270 271 271 271 271 271 270 270 270 270 271
320 317 313 310 309 306 301 298 295 292 289 286 282 277 273 270 266 265 265 265 265 264 264 264 265 264 264 264 265 266 267 268 269 270 271 271 271 272 272 272 271 270 271 271
319 316 313 309 307 306 302 298 296 295 293 289 285 281 276 271 266 264 265 267 267 267 266 265 265 265 265 266 267 267 268 269 270 271 272 272 272 273 273 273 272 271 271 271
316 314 312 310 307 306 303 299 296 294 292 291 288 284 278 272 268 266 266 268 269 268 267 266 266 265 266 267 268 269 269 269 270 271 272 273 273 273 274 274 273 273 273 273
312 311 311 310 306 304 302 299 296 294 291 289 286 282 278 274 271 269 268 269 270 269 268 267 266 266 266 267 268 269 270 270 271 272 273 274 274 274 274 274 274 274 274 274
310 309 309 308 305 302 300 297 294 293 290 287 283 280 277 273 271 271 270 269 269 268 267 267 266 266 266 267 269 270 271 271 273 274 275 276 276 276 276 276 275 275 274 275
308 308 307 305 304 301 298 295 293 292 290 286 283 280 277 274 272 271 270 268 267 267 267 265 266 267 268 269 269 270 272 274 275 276 277 278 278 278 277 277 276 276 276 276
308 307 306 304 302 300 296 293 292 291 289 286 283 280 277 274 272 271 269 267 267 267 267 266 266 267 269 270 270 271 272 274 276 277 277 278 278 278 278 279 279 279 278 278
307 306 305 303 301 298 295 292 290 290 288 286 283 281 278 275 273 271 269 267 266 266 266 266 267 269 270 272 272 272 273 274 275 277 277 278 278 279 280 281 281 281 281 281
307 306 305 303 300 297 295 292 290 290 288 285 282 280 277 275 273 271 269 267 266 265 265 265 267 267 269 272 274 274 274 275 275 276 276 277 278 279 280 281 282 282 282 282